Retour au catalogue

FENGYUN 1C DEB

ActifSSO
NORAD 38797·DEBRIS·🇨🇳 China

Lancé May 10, 1999 depuis Taiyuan Satellite Launch Center

Loading…

Prochains Passages (prochaines 24 heures)

TLE

FraisSource: Space-Track

Époque: Sep 14, 2026, 22:53 UTC

1 38797U 99025EUM 26257.95386208  .00000018  00000-0  66313-4 0  9994
2 38797  99.4544 147.9151 0244232 235.6165 122.1663 13.61865168630425

Suivez FENGYUN 1C DEB en temps réel avec AllMySat

Download on the App Store